Regional Weather Roundup
Issued by NWS

Home | Current Version | Previous Version | Text Only | Print | Product List | Glossary Off
Versions: 1 2 3 4 5 6 7 8 9 10 11 12 13 14 15 16 17 18 19 20 21 22 23 24 25 26 27 28 29 30 31 32 33 34 35 36 37 38 39 40 41 42 43 44 45 46 47 48 49 50

000
ASUS43 KMPX 111701
RWRMN
WEATHER ROUNDUP FOR MINNESOTA
NATIONAL WEATHER SERVICE TWIN CITIES/CHANHASSEN MN
1200 PM CDT FRI JUL 11 2014


NOTE: "FAIR" INDICATES FEW OR NO CLOUDS BELOW 12,000 FEET WITH NO
SIGNIFICANT WEATHER AND/OR OBSTRUCTIONS TO VISIBILITY. N/A MEANS
CURRENT SKY AND/OR WEATHER CONDITIONS ARE NOT AVAILABLE.

MNZ060>063-068>070-111800-
   Twin Cities Metro

CITY           SKY/WX    TMP DP  RH WIND       PRES   REMARKS
TWIN CITIES    PTSUNNY   69  64  84 S12G22    29.96F
ST PAUL        PTSUNNY   70  64  81 S13       29.96F
CRYSTAL        MOSUNNY   75  65  70 S16G25    29.93F
BLAINE         PTSUNNY   73  70  88 S15G21    29.95F
LAKEVILLE      LGT RAIN  64  63  94 S18G25    29.96F
EDEN PRAIRIE   LGT RAIN  68  66  93 S12       29.94F
SOUTH ST PAUL  PTSUNNY   67  64  89 S9        29.96F
LAKE ELMO      FAIR      72  64  78 S17G28    29.97F
$$
MNZ001>005-007-008-013>017-022>024-027-028-111800-
   Northwest Minnesota

CITY           SKY/WX    TMP DP  RH WIND       PRES   REMARKS
BEMIDJI        PTSUNNY   76  69  80 S6        29.88S
HALLOCK        SUNNY     81  54  39 NW12      29.87S
ROSEAU         SUNNY     77  70  78 W8        29.85S
WARROAD        MOSUNNY   77  70  78 W12       29.85S
THIEF RVR FALL PTSUNNY   79  68  69 NW13      29.88S
CROOKSTON      MOSUNNY   81  70  69 NW13      29.88S
FOSSTON        MOSUNNY   79  66  65 W8        29.89R
DETROIT LAKES  MOSUNNY   79  70  73 W7        29.91R
PARK RAPIDS    CLOUDY    76  70  82 SW6       29.89S
$$
MNZ006-009>011-018-025>026-111800-
   North Central Minnesota

CITY           SKY/WX    TMP DP  RH WIND       PRES   REMARKS
BAUDETTE       PTSUNNY   79  67  66 W10G22    29.84S
FLAG ISLAND    CLOUDY    72  64  78 W15       29.83R HAZE
INTL FALLS     CLOUDY    73  67  81 SW9       29.84F
WASKISH        PTSUNNY   77  70  78 SW9       29.86S
BIG FORK       CLOUDY    73  66  78 S9        29.88F
LONGVILLE      CLOUDY    72  68  88 S7        29.90S
GRAND RAPIDS   CLOUDY    70  64  83 S10       29.90F
CRANE LAKE     CLOUDY    70  64  83 S3        29.88S
ORR            CLOUDY    70  63  78 S7        29.85F
COOK           CLOUDY    70  64  83 S10       29.89S
$$
MNZ012-019>021-037-111800-
   Northeast Minnesota

CITY           SKY/WX    TMP DP  RH WIND       PRES   REMARKS
DULUTH         CLOUDY    68  64  87 SW13      29.93F
ELY            CLOUDY    66  63  88 SW9       29.90F
HIBBING        CLOUDY    70  65  84 SW8       29.91S
EVELETH        CLOUDY    68  64  88 SW10      29.92F
DULUTH HARBOR  CLOUDY    55  54  94 NE5       29.93F
TWO HARBORS    CLOUDY    63  59  88 SW5       29.92S
SILVER BAY     MOSUNNY   63  63 100 S6        29.91F
GRAND MARAIS     N/A     56  55  97 CALM      29.94F
G MARAIS ARPRT DRZL/FOG  59  55  88 S9        29.96F VSB 1
$$
MNZ029>031-032-039>041-046>048-054>057-064-111800-
   West Central Minnesota

CITY           SKY/WX    TMP DP  RH WIND       PRES   REMARKS
FERGUS FALLS   MOSUNNY   79  66  65 CALM      29.89R
WHEATON        MOSUNNY   79  70  73 CALM      29.90S
MORRIS         MOSUNNY   81  72  74 NW5       29.90R
ALEXANDRIA     PTSUNNY   76  69  79 S7        29.93S
ELBOW LAKE     CLOUDY    77  70  78 SW5       29.90R
WADENA         MOSUNNY   77  70  78 SW7       29.89F
GLENWOOD       MOSUNNY   79  70  73 SW5       29.93S
APPLETON       PTSUNNY   81  68  65 CALM      29.90R
BENSON         CLOUDY    79  70  73 CALM      29.91R
ORTONVILLE     MOSUNNY   82  70  65 N7        29.89S
MADISON        MOSUNNY   84  72  65 CALM      29.90R
WILLMAR        FAIR      75  68  78 SE9       29.94R
$$
MNZ033>034-036-042>043-049>051-058-059-111800-
   Central Minnesota

CITY           SKY/WX    TMP DP  RH WIND       PRES   REMARKS
ST CLOUD       CLOUDY    72  66  81 S12       29.94R
SAUK CENTRE    CLOUDY    75  69  81 S9        29.93R
PAYNESVILLE    HVY RAIN  69  66  90 SE7       29.95R
AITKIN         CLOUDY    72  66  83 S7        29.91R
PINE RIVER     CLOUDY    72  68  88 SW6       29.94R
BRAINERD       CLOUDY    75  67  76 S9        29.92R
STAPLES        CLOUDY    72  70  94 S7        29.91S
LONG PRAIRIE   CLOUDY    73  68  83 S8        29.93S
LITTLE FALLS   PTSUNNY   70  64  83 S9        29.93S
LITCHFIELD     CLOUDY    72  70  94 SE7       29.95R
BUFFALO        CLOUDY    71  64  80 S8G16     29.96S
MAPLE LAKE     CLOUDY    73  68  86 S8G17     29.95S
$$
MNZ037-044-045-052-053-111800-
   East Central Minnesota

CITY           SKY/WX    TMP DP  RH WIND       PRES   REMARKS
PRINCETON      CLOUDY    72  66  83 S9        29.95S
MORA           CLOUDY    68  63  83 SW7       29.97R
CAMBRIDGE      LGT RAIN  70  61  73 S12G17    29.94S
RUSH CITY      CLOUDY    69  64  85 S10G20    29.96S
MOOSE LAKE     CLOUDY    68  64  88 S9G16     29.92S FOG
HINCKLEY       CLOUDY    70  66  88 S12       29.95S
CLOQUET        CLOUDY    70  64  83 S14G22    29.93F
MCGREGOR       CLOUDY    68  64  88 S8        29.93R
$$
MNZ071>073-080-081-089-090-097-098-111800-
   Southwest Minnesota

CITY           SKY/WX    TMP DP  RH WIND       PRES   REMARKS
MONTEVIDEO     CLOUDY    81  70  69 SW7       29.92R
GRANITE FALLS  CLOUDY    77  68  74 SE9       29.93R
CANBY          CLOUDY    80  70  70 S6        29.92R
MARSHALL       PTSUNNY   81  70  69 SW10      29.91S
REDWOOD FALLS  CLOUDY    76  68  76 S15       29.93R
OLIVIA         CLOUDY    73  66  78 S10G18    29.93R
PIPESTONE      CLOUDY    73  70  88 SW13      29.97R
WINDOM         PTSUNNY   75  66  73 S15G21    29.98S
WORTHINGTON    CLOUDY    75  68  78 S17G23    30.00R
JACKSON        CLOUDY    75  64  69 S12G22    30.00S
TRACY          CLOUDY    78  70  75 SW14G21   29.94F
SLAYTON        CLOUDY    74  67  78 S15G24    29.98R
$$
MNZ065>067-074>077-082>085-091>093-111800-
   South Central Minnesota

CITY           SKY/WX    TMP DP  RH WIND       PRES   REMARKS
MANKATO        MOSUNNY   75  64  69 S13       29.99R
NEW ULM        MOSUNNY   73  68  83 S12G24    29.96R
ST JAMES       PTSUNNY   79  66  65 S16G22    29.98R
FAIRMONT       MOSUNNY   79  64  61 S15G22    29.99S
GLENCOE        PTSUNNY   72  64  76 SE13G21   29.96S
FARIBAULT      CLOUDY    73  63  68 SE7       30.01F
OWATONNA       CLOUDY    72  63  73 SE13G18   30.01R
WASECA         PTSUNNY   72  59  64 SE12G18   30.03R
ALBERT LEA     CLOUDY    72  63  73 S13G20    30.01R
$$
MNZ078>079-086>088-094>096-111800-
   Southeast Minnesota

CITY           SKY/WX    TMP DP  RH WIND       PRES   REMARKS
ROCHESTER      CLOUDY    64  59  83 SE15      30.03F
RED WING       RAIN      64  63  94 S12G20    29.96F
STANTON        PTSUNNY   67  62  83 S14       29.98F
DODGE CENTER   CLOUDY    66  63  88 S14       30.03R
WINONA         LGT RAIN  63  61  94 SE6       30.09F
AUSTIN         CLOUDY    66  61  82 S7        30.04R
PRESTON        LGT RAIN  64  60  84 SE10      30.07F
$$
ABBREVIATIONS USED IN REMARKS
   TC - TEMPERATURES IN CELSIUS
  WCI - WIND CHILL INDEX
   HX - HEAT INDEX
  VSB - VISIBILITY
$$


USA.gov is the U.S. government's official web portal to all federal, state and local government web resources and services.